Time,TemperatureF,DewpointF,PressureIn,WindDirection,WindDirectionDegrees,WindSpeedMPH,WindSpeedGustMPH,Humidity,HourlyPrecipIn,Conditions,Clouds,dailyrainin,SolarRadiationWatts/m^2,SoftwareType,DateUTC
2013-08-20 00:01:00,65.6,65.3,30.19,WSW,242,0.0,0.0,99,0.00,,,0.00,0,Wunderground v.1.15,2013-08-20 04:01:00,
2013-08-20 00:02:00,65.6,65.3,30.19,WSW,242,0.0,0.0,99,0.00,,,0.00,0,Wunderground v.1.15,2013-08-20 04:02:00,
2013-08-20 00:07:00,65.4,65.1,30.19,WSW,242,0.0,0.0,99,0.00,,,0.00,0,Wunderground v.1.15,2013-08-20 04:07:00,
2013-08-20 00:13:00,65.0,64.4,30.20,WSW,242,0.0,0.0,98,0.00,,,0.00,0,Wunderground v.1.15,2013-08-20 04:13:00,
2013-08-20 00:17:00,65.0,64.4,30.19,WSW,242,0.0,0.0,98,0.00,,,0.00,0,Wunderground v.1.15,2013-08-20 04:17:00,
2013-08-20 00:23:00,64.9,64.6,30.19,WSW,242,0.0,0.0,99,0.00,,,0.00,0,Wunderground v.1.15,2013-08-20 04:23:00,
2013-08-20 00:28:00,64.8,64.5,30.20,WSW,242,0.0,0.0,99,0.00,,,0.00,0,Wunderground v.1.15,2013-08-20 04:28:00,
2013-08-20 00:33:00,64.9,64.6,30.20,WSW,242,0.0,0.0,99,0.00,,,0.00,0,Wunderground v.1.15,2013-08-20 04:33:00,
2013-08-20 00:38:00,65.0,64.7,30.20,WSW,242,0.0,0.0,99,0.00,,,0.00,0,Wunderground v.1.15,2013-08-20 04:38:00,
2013-08-20 00:43:00,65.0,64.7,30.20,WSW,242,0.0,0.0,99,0.00,,,0.00,0,Wunderground v.1.15,2013-08-20 04:43:00,
2013-08-20 00:48:00,65.2,64.9,30.20,WSW,242,0.0,1.0,99,0.00,,,0.00,0,Wunderground v.1.15,2013-08-20 04:48:00,
2013-08-20 00:53:00,65.1,64.8,30.19,WSW,242,0.0,0.0,99,0.00,,,0.00,0,Wunderground v.1.15,2013-08-20 04:53:00,
2013-08-20 00:58:00,64.8,64.5,30.19,WSW,242,0.0,0.0,99,0.00,,,0.00,0,Wunderground v.1.15,2013-08-20 04:58:00,
2013-08-20 01:03:00,64.7,64.1,30.19,WSW,242,0.0,0.0,98,0.00,,,0.00,0,Wunderground v.1.15,2013-08-20 05:03:00,
2013-08-20 01:08:00,64.5,64.2,30.19,WSW,242,0.0,0.0,99,0.00,,,0.00,0,Wunderground v.1.15,2013-08-20 05:08:00,
2013-08-20 01:13:00,64.5,64.2,30.19,WSW,242,0.0,0.0,99,0.00,,,0.00,0,Wunderground v.1.15,2013-08-20 05:13:00,
2013-08-20 01:18:00,64.7,64.4,30.19,WSW,242,0.0,0.0,99,0.00,,,0.00,0,Wunderground v.1.15,2013-08-20 05:18:00,
2013-08-20 01:23:00,64.3,64.0,30.19,WSW,242,0.0,0.0,99,0.00,,,0.00,0,Wunderground v.1.15,2013-08-20 05:23:00,
2013-08-20 01:28:00,64.1,63.8,30.19,WSW,242,0.0,0.0,99,0.00,,,0.00,0,Wunderground v.1.15,2013-08-20 05:28:00,
2013-08-20 01:33:00,63.9,63.3,30.19,WSW,242,0.0,0.0,98,0.00,,,0.00,0,Wunderground v.1.15,2013-08-20 05:33:00,
2013-08-20 01:38:00,63.9,63.3,30.19,WSW,242,0.0,0.0,98,0.00,,,0.00,0,Wunderground v.1.15,2013-08-20 05:38:00,
2013-08-20 01:43:00,63.7,63.4,30.18,WSW,242,0.0,0.0,99,0.00,,,0.00,0,Wunderground v.1.15,2013-08-20 05:43:00,
2013-08-20 01:48:00,63.6,63.3,30.18,WSW,242,0.0,0.0,99,0.00,,,0.00,0,Wunderground v.1.15,2013-08-20 05:48:00,
2013-08-20 01:53:00,64.0,63.7,30.18,WSW,242,0.0,0.0,99,0.00,,,0.00,0,Wunderground v.1.15,2013-08-20 05:53:00,
2013-08-20 01:58:00,63.7,63.4,30.18,WSW,242,0.0,0.0,99,0.00,,,0.00,0,Wunderground v.1.15,2013-08-20 05:58:00,
2013-08-20 02:03:00,63.5,63.2,30.18,WSW,242,0.0,0.0,99,0.00,,,0.00,0,Wunderground v.1.15,2013-08-20 06:03:00,
2013-08-20 02:08:00,63.3,63.0,30.18,WSW,242,0.0,0.0,99,0.00,,,0.00,0,Wunderground v.1.15,2013-08-20 06:08:00,
2013-08-20 02:13:00,63.4,63.1,30.18,WSW,242,0.0,0.0,99,0.00,,,0.00,0,Wunderground v.1.15,2013-08-20 06:13:00,
2013-08-20 02:18:00,63.3,63.0,30.18,WSW,242,0.0,0.0,99,0.00,,,0.00,0,Wunderground v.1.15,2013-08-20 06:18:00,
2013-08-20 02:23:00,63.2,62.9,30.18,WSW,242,0.0,0.0,99,0.00,,,0.00,0,Wunderground v.1.15,2013-08-20 06:23:00,
2013-08-20 02:28:00,63.5,63.2,30.18,WSW,242,0.0,1.0,99,0.00,,,0.00,0,Wunderground v.1.15,2013-08-20 06:28:00,
2013-08-20 02:33:00,63.6,63.3,30.18,WSW,242,0.0,0.0,99,0.00,,,0.00,0,Wunderground v.1.15,2013-08-20 06:33:00,
2013-08-20 02:38:00,63.7,63.4,30.18,WSW,242,0.0,0.0,99,0.00,,,0.00,0,Wunderground v.1.15,2013-08-20 06:38:00,
2013-08-20 02:43:00,63.7,63.4,30.17,WSW,242,0.0,0.0,99,0.00,,,0.00,0,Wunderground v.1.15,2013-08-20 06:43:00,
2013-08-20 02:48:00,63.6,63.3,30.18,WSW,242,0.0,0.0,99,0.00,,,0.00,0,Wunderground v.1.15,2013-08-20 06:48:00,
2013-08-20 02:53:00,63.4,63.1,30.18,WSW,242,0.0,0.0,99,0.00,,,0.00,0,Wunderground v.1.15,2013-08-20 06:53:00,
2013-08-20 02:58:00,63.5,63.2,30.17,WSW,242,0.0,0.0,99,0.00,,,0.00,0,Wunderground v.1.15,2013-08-20 06:58:00,
2013-08-20 03:03:00,63.6,63.3,30.17,WSW,242,0.0,0.0,99,0.00,,,0.00,0,Wunderground v.1.15,2013-08-20 07:03:00,
2013-08-20 03:08:00,63.7,63.4,30.17,WSW,242,0.0,0.0,99,0.00,,,0.00,0,Wunderground v.1.15,2013-08-20 07:08:00,
2013-08-20 03:13:00,63.8,63.5,30.17,WSW,242,0.0,0.0,99,0.00,,,0.00,0,Wunderground v.1.15,2013-08-20 07:13:00,
2013-08-20 03:18:00,64.1,63.8,30.17,WSW,242,0.0,0.0,99,0.00,,,0.00,0,Wunderground v.1.15,2013-08-20 07:18:00,
2013-08-20 03:23:00,64.0,63.7,30.17,WSW,242,0.0,0.0,99,0.00,,,0.00,0,Wunderground v.1.15,2013-08-20 07:23:00,
2013-08-20 03:28:00,64.0,63.7,30.17,WSW,242,0.0,0.0,99,0.00,,,0.00,0,Wunderground v.1.15,2013-08-20 07:28:00,
2013-08-20 03:33:00,63.8,63.5,30.17,WSW,242,0.0,0.0,99,0.00,,,0.00,0,Wunderground v.1.15,2013-08-20 07:33:00,
2013-08-20 03:38:00,64.0,63.7,30.17,WSW,242,0.0,0.0,99,0.00,,,0.00,0,Wunderground v.1.15,2013-08-20 07:38:00,
2013-08-20 07:27:00,63.5,63.2,30.20,WSW,242,0.0,0.0,99,0.00,,,0.00,60,Wunderground v.1.15,2013-08-20 11:27:00,
2013-08-20 07:32:00,63.6,63.3,30.21,WSW,242,0.0,0.0,99,0.00,,,0.00,65,Wunderground v.1.15,2013-08-20 11:32:00,
2013-08-20 07:37:00,63.8,63.5,30.21,WSW,242,0.0,0.0,99,0.00,,,0.00,74,Wunderground v.1.15,2013-08-20 11:37:00,
2013-08-20 07:42:00,64.1,63.8,30.21,WSW,242,0.0,0.0,99,0.00,,,0.00,83,Wunderground v.1.15,2013-08-20 11:42:00,
2013-08-20 07:47:00,64.2,63.9,30.21,WSW,242,0.0,0.0,99,0.00,,,0.00,98,Wunderground v.1.15,2013-08-20 11:47:00,
2013-08-20 07:52:00,64.8,64.5,30.21,WSW,242,0.0,0.0,99,0.00,,,0.00,111,Wunderground v.1.15,2013-08-20 11:52:00,
2013-08-20 07:57:00,65.1,64.8,30.21,WSW,242,0.0,0.0,99,0.00,,,0.00,109,Wunderground v.1.15,2013-08-20 11:57:00,
2013-08-20 08:02:00,65.0,64.7,30.21,WSW,241,0.0,1.0,99,0.00,,,0.00,104,Wunderground v.1.15,2013-08-20 12:02:00,
2013-08-20 08:07:00,65.0,64.7,30.21,SW,228,1.0,2.0,99,0.00,,,0.00,107,Wunderground v.1.15,2013-08-20 12:07:00,
2013-08-20 08:12:00,65.0,64.7,30.21,South,169,0.0,2.0,99,0.00,,,0.00,118,Wunderground v.1.15,2013-08-20 12:12:00,
2013-08-20 08:17:00,65.3,65.0,30.22,South,169,0.0,2.0,99,0.00,,,0.00,132,Wunderground v.1.15,2013-08-20 12:17:00,
2013-08-20 08:22:00,65.6,65.3,30.21,South,169,0.0,0.0,99,0.00,,,0.00,162,Wunderground v.1.15,2013-08-20 12:22:00,
2013-08-20 08:27:00,65.9,65.6,30.22,South,169,0.0,0.0,99,0.00,,,0.00,197,Wunderground v.1.15,2013-08-20 12:27:00,
2013-08-20 08:32:00,66.4,66.1,30.22,South,169,0.0,0.0,99,0.00,,,0.00,188,Wunderground v.1.15,2013-08-20 12:32:00,
2013-08-20 08:37:00,66.9,66.6,30.22,South,169,1.0,1.0,99,0.00,,,0.00,183,Wunderground v.1.15,2013-08-20 12:37:00,
2013-08-20 08:42:00,67.3,67.0,30.22,South,169,0.0,1.0,99,0.00,,,0.00,232,Wunderground v.1.15,2013-08-20 12:42:00,
2013-08-20 08:47:00,67.6,67.3,30.22,South,169,0.0,1.0,99,0.00,,,0.00,257,Wunderground v.1.15,2013-08-20 12:47:00,
2013-08-20 08:52:00,68.1,67.8,30.22,South,169,0.0,1.0,99,0.00,,,0.00,287,Wunderground v.1.15,2013-08-20 12:52:00,
2013-08-20 08:57:00,68.6,68.3,30.22,South,169,0.0,1.0,99,0.00,,,0.00,283,Wunderground v.1.15,2013-08-20 12:57:00,
2013-08-20 09:02:00,69.2,68.9,30.22,South,169,0.0,0.0,99,0.00,,,0.00,250,Wunderground v.1.15,2013-08-20 13:02:00,
2013-08-20 09:07:00,69.7,69.4,30.22,South,169,0.0,1.0,99,0.00,,,0.00,287,Wunderground v.1.15,2013-08-20 13:07:00,
2013-08-20 09:12:00,69.9,69.6,30.23,South,169,1.0,1.0,99,0.00,,,0.00,262,Wunderground v.1.15,2013-08-20 13:12:00,
2013-08-20 09:17:00,70.1,69.8,30.23,SW,234,0.0,3.0,99,0.00,,,0.00,281,Wunderground v.1.15,2013-08-20 13:17:00,
2013-08-20 09:22:00,70.2,69.9,30.23,SW,234,0.0,1.0,99,0.00,,,0.00,264,Wunderground v.1.15,2013-08-20 13:22:00,
2013-08-20 09:27:00,70.3,70.0,30.23,SW,234,1.0,1.0,99,0.00,,,0.00,295,Wunderground v.1.15,2013-08-20 13:27:00,
2013-08-20 09:32:00,71.0,70.7,30.23,SW,234,0.0,1.0,99,0.00,,,0.00,359,Wunderground v.1.15,2013-08-20 13:32:00,
2013-08-20 09:37:00,71.6,71.3,30.24,SW,234,0.0,1.0,99,0.00,,,0.00,338,Wunderground v.1.15,2013-08-20 13:37:00,
2013-08-20 09:42:00,72.1,71.8,30.23,SW,234,0.0,2.0,99,0.00,,,0.00,371,Wunderground v.1.15,2013-08-20 13:42:00,
2013-08-20 09:47:00,72.6,72.0,30.23,SW,223,0.0,2.0,98,0.00,,,0.00,357,Wunderground v.1.15,2013-08-20 13:47:00,
2013-08-20 09:52:00,73.0,72.1,30.24,SW,223,0.0,0.0,97,0.00,,,0.00,348,Wunderground v.1.15,2013-08-20 13:52:00,
2013-08-20 09:57:00,73.1,71.9,30.23,SW,223,0.0,1.0,96,0.00,,,0.00,352,Wunderground v.1.15,2013-08-20 13:57:00,
2013-08-20 10:02:00,73.4,71.9,30.23,SW,223,0.0,0.0,95,0.00,,,0.00,343,Wunderground v.1.15,2013-08-20 14:02:00,
2013-08-20 10:08:00,73.6,71.4,30.23,WSW,254,0.0,2.0,93,0.00,,,0.00,380,Wunderground v.1.15,2013-08-20 14:08:00,
2013-08-20 10:12:00,73.7,71.9,30.24,WSW,254,0.0,0.0,94,0.00,,,0.00,388,Wunderground v.1.15,2013-08-20 14:12:00,
2013-08-20 10:18:00,74.2,71.4,30.24,WSW,255,0.0,2.0,91,0.00,,,0.00,415,Wunderground v.1.15,2013-08-20 14:18:00,
2013-08-20 10:23:00,74.2,71.4,30.24,WSW,255,0.0,0.0,91,0.00,,,0.00,439,Wunderground v.1.15,2013-08-20 14:23:00,
2013-08-20 10:28:00,74.6,71.8,30.24,WSW,244,0.0,3.0,91,0.00,,,0.00,473,Wunderground v.1.15,2013-08-20 14:28:00,
2013-08-20 10:33:00,74.9,71.1,30.24,SW,225,0.0,3.0,88,0.00,,,0.00,454,Wunderground v.1.15,2013-08-20 14:33:00,
2013-08-20 10:38:00,74.5,70.7,30.24,SW,219,0.0,3.0,88,0.00,,,0.00,480,Wunderground v.1.15,2013-08-20 14:38:00,
2013-08-20 10:43:00,75.2,72.1,30.24,WSW,240,0.0,2.0,90,0.00,,,0.00,492,Wunderground v.1.15,2013-08-20 14:43:00,
2013-08-20 10:48:00,75.7,71.6,30.24,WSW,240,0.0,2.0,87,0.00,,,0.00,612,Wunderground v.1.15,2013-08-20 14:48:00,
2013-08-20 10:53:00,75.7,71.6,30.24,WSW,254,1.0,2.0,87,0.00,,,0.00,543,Wunderground v.1.15,2013-08-20 14:53:00,
2013-08-20 10:58:00,76.0,71.5,30.24,West,260,0.0,2.0,86,0.00,,,0.00,534,Wunderground v.1.15,2013-08-20 14:58:00,
2013-08-20 11:03:00,75.8,71.7,30.24,NW,316,2.0,2.0,87,0.00,,,0.00,564,Wunderground v.1.15,2013-08-20 15:03:00,
2013-08-20 11:08:00,76.0,71.2,30.24,NNE,19,1.0,3.0,85,0.00,,,0.00,512,Wunderground v.1.15,2013-08-20 15:08:00,
2013-08-20 11:13:00,76.6,72.8,30.25,NNW,342,0.0,2.0,88,0.00,,,0.00,619,Wunderground v.1.15,2013-08-20 15:13:00,
2013-08-20 11:18:00,77.0,73.2,30.25,NW,306,0.0,2.0,88,0.00,,,0.00,422,Wunderground v.1.15,2013-08-20 15:18:00,
2013-08-20 11:23:00,76.7,70.8,30.25,NNE,32,0.0,3.0,82,0.00,,,0.00,756,Wunderground v.1.15,2013-08-20 15:23:00,
2013-08-20 11:28:00,76.7,70.8,30.25,South,173,1.0,3.0,82,0.00,,,0.00,735,Wunderground v.1.15,2013-08-20 15:28:00,
2013-08-20 11:33:00,77.0,71.1,30.25,SSE,158,0.0,3.0,82,0.00,,,0.00,645,Wunderground v.1.15,2013-08-20 15:33:00,
2013-08-20 11:38:00,77.7,72.1,30.24,WSW,251,0.0,3.0,83,0.00,,,0.00,371,Wunderground v.1.15,2013-08-20 15:38:00,
2013-08-20 11:43:00,78.0,72.8,30.25,NW,310,0.0,1.0,84,0.00,,,0.00,828,Wunderground v.1.15,2013-08-20 15:43:00,
2013-08-20 11:48:00,78.2,71.9,30.25,SSW,201,2.0,2.0,81,0.00,,,0.00,907,Wunderground v.1.15,2013-08-20 15:48:00,
2013-08-20 11:53:00,78.2,71.9,30.25,South,180,0.0,3.0,81,0.00,,,0.00,640,Wunderground v.1.15,2013-08-20 15:53:00,
2013-08-20 11:58:00,78.2,71.5,30.24,West,263,2.0,3.0,80,0.00,,,0.00,520,Wunderground v.1.15,2013-08-20 15:58:00,
2013-08-20 12:03:00,78.6,72.3,30.25,West,273,0.0,1.0,81,0.00,,,0.00,543,Wunderground v.1.15,2013-08-20 16:03:00,
2013-08-20 12:08:00,78.3,71.6,30.25,SSW,209,0.0,3.0,80,0.00,,,0.00,450,Wunderground v.1.15,2013-08-20 16:08:00,
2013-08-20 12:13:00,78.1,72.2,30.25,SW,221,0.0,2.0,82,0.00,,,0.00,466,Wunderground v.1.15,2013-08-20 16:13:00,
2013-08-20 12:18:00,78.4,72.8,30.24,SSE,155,0.0,2.0,83,0.00,,,0.00,649,Wunderground v.1.15,2013-08-20 16:18:00,
2013-08-20 12:23:00,78.3,70.5,30.25,South,184,0.0,3.0,77,0.00,,,0.00,475,Wunderground v.1.15,2013-08-20 16:23:00,
2013-08-20 12:28:00,78.4,71.3,30.25,South,188,0.0,3.0,79,0.00,,,0.00,645,Wunderground v.1.15,2013-08-20 16:28:00,
2013-08-20 12:33:00,78.6,71.2,30.25,SSW,209,2.0,6.0,78,0.00,,,0.00,469,Wunderground v.1.15,2013-08-20 16:33:00,
2013-08-20 12:38:00,78.7,70.9,30.25,SSE,162,3.0,6.0,77,0.00,,,0.00,772,Wunderground v.1.15,2013-08-20 16:38:00,
2013-08-20 12:43:00,78.9,70.7,30.25,SE,140,1.0,4.0,76,0.00,,,0.00,517,Wunderground v.1.15,2013-08-20 16:43:00,
2013-08-20 12:48:00,79.2,70.6,30.25,SE,140,2.0,5.0,75,0.00,,,0.00,1023,Wunderground v.1.15,2013-08-20 16:48:00,
2013-08-20 12:53:00,80.4,73.3,30.25,South,183,1.0,4.0,79,0.00,,,0.00,837,Wunderground v.1.15,2013-08-20 16:53:00,
2013-08-20 12:58:00,79.8,71.2,30.25,SE,145,2.0,6.0,75,0.00,,,0.00,803,Wunderground v.1.15,2013-08-20 16:58:00,
2013-08-20 13:03:00,79.3,70.7,30.25,ENE,74,1.0,5.0,75,0.00,,,0.00,821,Wunderground v.1.15,2013-08-20 17:03:00,
2013-08-20 13:08:00,79.5,72.4,30.25,SW,216,1.0,5.0,79,0.00,,,0.00,397,Wunderground v.1.15,2013-08-20 17:08:00,
2013-08-20 13:13:00,79.0,71.2,30.24,SSE,158,0.0,2.0,77,0.00,,,0.00,527,Wunderground v.1.15,2013-08-20 17:13:00,
2013-08-20 13:18:00,79.5,72.4,30.25,NW,319,1.0,2.0,79,0.00,,,0.00,417,Wunderground v.1.15,2013-08-20 17:18:00,
2013-08-20 13:23:00,79.3,72.2,30.24,SSE,165,3.0,5.0,79,0.00,,,0.00,438,Wunderground v.1.15,2013-08-20 17:23:00,
2013-08-20 13:28:00,80.1,71.5,30.24,South,171,0.0,7.0,75,0.00,,,0.00,784,Wunderground v.1.15,2013-08-20 17:28:00,
2013-08-20 13:33:00,80.0,71.4,30.24,South,176,0.0,2.0,75,0.00,,,0.00,719,Wunderground v.1.15,2013-08-20 17:33:00,
2013-08-20 13:38:00,80.3,71.3,30.24,SSW,204,2.0,3.0,74,0.00,,,0.00,791,Wunderground v.1.15,2013-08-20 17:38:00,
2013-08-20 13:43:00,80.6,71.9,30.24,South,182,2.0,3.0,75,0.00,,,0.00,749,Wunderground v.1.15,2013-08-20 17:43:00,
2013-08-20 13:48:00,81.2,72.9,30.24,SSW,209,2.0,4.0,76,0.00,,,0.00,796,Wunderground v.1.15,2013-08-20 17:48:00,
2013-08-20 13:53:00,80.7,71.2,30.24,South,182,0.0,5.0,73,0.00,,,0.00,712,Wunderground v.1.15,2013-08-20 17:53:00,
2013-08-20 13:58:00,80.9,71.0,30.23,SSW,192,1.0,5.0,72,0.00,,,0.00,693,Wunderground v.1.15,2013-08-20 17:58:00,
2013-08-20 14:03:00,80.6,71.5,30.24,South,188,1.0,4.0,74,0.00,,,0.00,591,Wunderground v.1.15,2013-08-20 18:03:00,
2013-08-20 14:08:00,80.3,71.6,30.23,SSW,207,4.0,6.0,75,0.00,,,0.00,626,Wunderground v.1.15,2013-08-20 18:08:00,
2013-08-20 14:13:00,80.1,70.7,30.23,South,182,4.0,5.0,73,0.00,,,0.00,524,Wunderground v.1.15,2013-08-20 18:13:00,
2013-08-20 14:18:00,80.2,70.8,30.23,South,189,2.0,5.0,73,0.00,,,0.00,657,Wunderground v.1.15,2013-08-20 18:18:00,
2013-08-20 14:23:00,80.5,71.4,30.23,South,170,6.0,9.0,74,0.00,,,0.00,729,Wunderground v.1.15,2013-08-20 18:23:00,
2013-08-20 14:28:00,81.0,70.7,30.23,SSW,196,2.0,9.0,71,0.00,,,0.00,659,Wunderground v.1.15,2013-08-20 18:28:00,
2013-08-20 14:33:00,80.7,70.8,30.23,SSW,201,3.0,5.0,72,0.00,,,0.00,573,Wunderground v.1.15,2013-08-20 18:33:00,
2013-08-20 14:38:00,81.0,70.7,30.23,SE,124,5.0,5.0,71,0.00,,,0.00,592,Wunderground v.1.15,2013-08-20 18:38:00,
2013-08-20 14:43:00,80.6,70.3,30.23,SE,144,3.0,4.0,71,0.00,,,0.00,520,Wunderground v.1.15,2013-08-20 18:43:00,
2013-08-20 14:48:00,80.4,70.1,30.23,ESE,123,2.0,6.0,71,0.00,,,0.00,538,Wunderground v.1.15,2013-08-20 18:48:00,
2013-08-20 14:53:00,80.6,71.5,30.22,South,171,1.0,5.0,74,0.00,,,0.00,510,Wunderground v.1.15,2013-08-20 18:53:00,
2013-08-20 14:58:00,80.4,70.5,30.23,SSW,194,3.0,5.0,72,0.00,,,0.00,434,Wunderground v.1.15,2013-08-20 18:58:00,
2013-08-20 15:03:00,80.4,70.5,30.22,SSE,162,0.0,3.0,72,0.00,,,0.00,406,Wunderground v.1.15,2013-08-20 19:03:00,
2013-08-20 15:08:00,80.1,70.3,30.22,SSE,165,1.0,4.0,72,0.00,,,0.00,380,Wunderground v.1.15,2013-08-20 19:08:00,
2013-08-20 15:13:00,80.0,70.6,30.22,South,171,3.0,3.0,73,0.00,,,0.00,366,Wunderground v.1.15,2013-08-20 19:13:00,
2013-08-20 15:18:00,80.0,70.6,30.22,SSE,150,1.0,4.0,73,0.00,,,0.00,383,Wunderground v.1.15,2013-08-20 19:18:00,
2013-08-20 15:24:00,80.2,70.8,30.22,South,180,0.0,2.0,73,0.00,,,0.00,534,Wunderground v.1.15,2013-08-20 19:24:00,
2013-08-20 15:29:00,80.7,70.4,30.22,SE,144,1.0,3.0,71,0.00,,,0.00,454,Wunderground v.1.15,2013-08-20 19:29:00,
2013-08-20 15:33:00,80.4,69.7,30.22,SSE,166,0.0,4.0,70,0.00,,,0.00,404,Wunderground v.1.15,2013-08-20 19:33:00,
2013-08-20 15:39:00,80.2,70.4,30.21,SW,218,2.0,4.0,72,0.00,,,0.00,408,Wunderground v.1.15,2013-08-20 19:39:00,
2013-08-20 15:44:00,80.2,69.9,30.21,SSE,147,3.0,3.0,71,0.00,,,0.00,410,Wunderground v.1.15,2013-08-20 19:44:00,
2013-08-20 15:49:00,80.5,69.4,30.21,SE,138,2.0,4.0,69,0.00,,,0.00,452,Wunderground v.1.15,2013-08-20 19:49:00,
2013-08-20 15:54:00,80.7,69.6,30.21,SSE,161,1.0,6.0,69,0.00,,,0.00,445,Wunderground v.1.15,2013-08-20 19:54:00,
2013-08-20 15:59:00,80.5,69.8,30.20,South,169,0.0,6.0,70,0.00,,,0.00,413,Wunderground v.1.15,2013-08-20 19:59:00,
2013-08-20 16:04:00,80.8,69.2,30.20,SSE,160,1.0,2.0,68,0.00,,,0.00,397,Wunderground v.1.15,2013-08-20 20:04:00,
2013-08-20 16:09:00,80.3,68.8,30.20,South,187,0.0,3.0,68,0.00,,,0.00,367,Wunderground v.1.15,2013-08-20 20:09:00,
2013-08-20 16:14:00,79.8,69.6,30.20,SSW,200,0.0,4.0,71,0.00,,,0.00,352,Wunderground v.1.15,2013-08-20 20:14:00,
2013-08-20 16:19:00,79.8,71.2,30.20,SSW,200,0.0,4.0,75,0.00,,,0.00,332,Wunderground v.1.15,2013-08-20 20:19:00,
2013-08-20 16:24:00,80.4,70.1,30.20,South,190,2.0,3.0,71,0.00,,,0.00,352,Wunderground v.1.15,2013-08-20 20:24:00,
2013-08-20 16:29:00,80.5,69.0,30.20,SE,125,0.0,3.0,68,0.00,,,0.00,345,Wunderground v.1.15,2013-08-20 20:29:00,
2013-08-20 16:34:00,80.2,69.5,30.20,SE,136,0.0,3.0,70,0.00,,,0.00,387,Wunderground v.1.15,2013-08-20 20:34:00,
2013-08-20 16:39:00,80.5,69.8,30.20,SSE,155,0.0,4.0,70,0.00,,,0.00,485,Wunderground v.1.15,2013-08-20 20:39:00,
2013-08-20 16:44:00,80.8,70.1,30.20,SSW,192,2.0,3.0,70,0.00,,,0.00,482,Wunderground v.1.15,2013-08-20 20:44:00,
2013-08-20 16:49:00,80.5,69.4,30.20,SSW,192,1.0,3.0,69,0.00,,,0.00,425,Wunderground v.1.15,2013-08-20 20:49:00,
2013-08-20 16:54:00,80.5,69.8,30.20,South,173,0.0,4.0,70,0.00,,,0.00,459,Wunderground v.1.15,2013-08-20 20:54:00,
2013-08-20 16:59:00,81.0,69.4,30.19,ESE,117,2.0,4.0,68,0.00,,,0.00,425,Wunderground v.1.15,2013-08-20 20:59:00,
2013-08-20 17:04:00,81.1,68.7,30.19,SE,145,3.0,4.0,66,0.00,,,0.00,403,Wunderground v.1.15,2013-08-20 21:04:00,
2013-08-20 17:09:00,81.4,68.9,30.19,South,179,1.0,4.0,66,0.00,,,0.00,397,Wunderground v.1.15,2013-08-20 21:09:00,
2013-08-20 17:14:00,81.6,68.2,30.19,SSW,192,0.0,2.0,64,0.00,,,0.00,441,Wunderground v.1.15,2013-08-20 21:14:00,
2013-08-20 17:19:00,81.4,68.1,30.20,SSE,165,1.0,4.0,64,0.00,,,0.00,396,Wunderground v.1.15,2013-08-20 21:19:00,
2013-08-20 17:25:00,82.3,70.2,30.19,SSW,192,0.0,2.0,67,0.00,,,0.00,374,Wunderground v.1.15,2013-08-20 21:25:00,
2013-08-20 17:30:00,81.8,68.4,30.20,South,183,1.0,3.0,64,0.00,,,0.00,257,Wunderground v.1.15,2013-08-20 21:30:00,
2013-08-20 17:35:00,81.1,70.4,30.19,SSW,200,1.0,2.0,70,0.00,,,0.00,225,Wunderground v.1.15,2013-08-20 21:35:00,
2013-08-20 17:40:00,80.5,69.0,30.19,South,178,1.0,5.0,68,0.00,,,0.00,207,Wunderground v.1.15,2013-08-20 21:40:00,
2013-08-20 17:45:00,80.0,70.6,30.20,SSW,203,0.0,2.0,73,0.00,,,0.00,206,Wunderground v.1.15,2013-08-20 21:45:00,
2013-08-20 17:50:00,80.0,71.4,30.19,SSW,200,1.0,2.0,75,0.00,,,0.00,185,Wunderground v.1.15,2013-08-20 21:50:00,
2013-08-20 17:55:00,79.4,71.6,30.19,SSW,207,0.0,4.0,77,0.00,,,0.00,172,Wunderground v.1.15,2013-08-20 21:55:00,
2013-08-20 18:00:00,78.9,72.6,30.19,SSW,207,0.0,0.0,81,0.00,,,0.00,149,Wunderground v.1.15,2013-08-20 22:00:00,
2013-08-20 18:05:00,78.7,72.0,30.19,SSW,207,0.0,1.0,80,0.00,,,0.00,135,Wunderground v.1.15,2013-08-20 22:05:00,
2013-08-20 18:10:00,78.2,72.3,30.19,SSW,207,1.0,1.0,82,0.00,,,0.00,128,Wunderground v.1.15,2013-08-20 22:10:00,
2013-08-20 18:15:00,78.3,72.0,30.19,SSW,207,0.0,3.0,81,0.00,,,0.00,125,Wunderground v.1.15,2013-08-20 22:15:00,
2013-08-20 18:20:00,78.0,72.1,30.19,SSW,207,0.0,0.0,82,0.00,,,0.00,134,Wunderground v.1.15,2013-08-20 22:20:00,
2013-08-20 18:25:00,78.0,72.8,30.19,SSW,207,0.0,0.0,84,0.00,,,0.00,135,Wunderground v.1.15,2013-08-20 22:25:00,
2013-08-20 18:30:00,77.8,72.9,30.19,SSW,207,0.0,0.0,85,0.00,,,0.00,149,Wunderground v.1.15,2013-08-20 22:30:00,
2013-08-20 18:35:00,78.1,72.2,30.19,SSW,207,0.0,1.0,82,0.00,,,0.00,132,Wunderground v.1.15,2013-08-20 22:35:00,
2013-08-20 18:40:00,78.2,72.3,30.19,SSW,206,2.0,2.0,82,0.00,,,0.00,111,Wunderground v.1.15,2013-08-20 22:40:00,
2013-08-20 18:45:00,78.3,72.0,30.19,South,186,1.0,2.0,81,0.00,,,0.00,97,Wunderground v.1.15,2013-08-20 22:45:00,
2013-08-20 18:50:00,77.8,72.2,30.19,South,186,0.0,0.0,83,0.00,,,0.00,83,Wunderground v.1.15,2013-08-20 22:50:00,
2013-08-20 18:55:00,77.5,72.3,30.19,South,186,0.0,1.0,84,0.00,,,0.00,81,Wunderground v.1.15,2013-08-20 22:55:00,
2013-08-20 19:00:00,77.3,72.1,30.19,South,186,0.0,0.0,84,0.00,,,0.00,67,Wunderground v.1.15,2013-08-20 23:00:00,
2013-08-20 19:05:00,77.1,72.2,30.19,South,186,0.0,0.0,85,0.00,,,0.00,65,Wunderground v.1.15,2013-08-20 23:05:00,
2013-08-20 19:10:00,76.9,72.0,30.20,South,186,0.0,0.0,85,0.00,,,0.00,60,Wunderground v.1.15,2013-08-20 23:10:00,
2013-08-20 19:15:00,76.7,72.5,30.20,South,186,0.0,0.0,87,0.00,,,0.00,53,Wunderground v.1.15,2013-08-20 23:15:00,
2013-08-20 19:20:00,76.2,71.7,30.20,South,186,0.0,0.0,86,0.00,,,0.00,49,Wunderground v.1.15,2013-08-20 23:20:00,
2013-08-20 19:25:00,75.8,72.0,30.20,South,186,0.0,0.0,88,0.00,,,0.00,44,Wunderground v.1.15,2013-08-20 23:25:00,
2013-08-20 19:30:00,75.5,72.0,30.20,South,186,0.0,0.0,89,0.00,,,0.00,37,Wunderground v.1.15,2013-08-20 23:30:00,
2013-08-20 19:35:00,75.5,71.7,30.20,South,186,0.0,0.0,88,0.00,,,0.00,28,Wunderground v.1.15,2013-08-20 23:35:00,
2013-08-20 19:40:00,76.1,72.3,30.20,South,186,0.0,0.0,88,0.00,,,0.00,19,Wunderground v.1.15,2013-08-20 23:40:00,
2013-08-20 19:45:00,75.7,72.2,30.20,South,186,0.0,0.0,89,0.00,,,0.00,14,Wunderground v.1.15,2013-08-20 23:45:00,
2013-08-20 19:50:00,75.0,72.2,30.20,South,186,0.0,0.0,91,0.00,,,0.00,5,Wunderground v.1.15,2013-08-20 23:50:00,
2013-08-20 19:55:00,74.7,71.9,30.20,South,186,0.0,1.0,91,0.00,,,0.00,0,Wunderground v.1.15,2013-08-20 23:55:00,
2013-08-20 20:00:00,74.0,71.5,30.21,South,186,0.0,0.0,92,0.00,,,0.00,0,Wunderground v.1.15,2013-08-21 00:00:00,
2013-08-20 20:05:00,73.7,71.5,30.20,South,186,0.0,0.0,93,0.00,,,0.00,0,Wunderground v.1.15,2013-08-21 00:05:00,
2013-08-20 20:10:00,73.5,71.7,30.20,South,186,0.0,0.0,94,0.00,,,0.00,0,Wunderground v.1.15,2013-08-21 00:10:00,
2013-08-20 20:15:00,73.1,71.3,30.20,South,186,0.0,0.0,94,0.00,,,0.00,0,Wunderground v.1.15,2013-08-21 00:15:00,
2013-08-20 20:20:00,72.7,71.2,30.20,South,186,0.0,0.0,95,0.00,,,0.00,0,Wunderground v.1.15,2013-08-21 00:20:00,
2013-08-20 20:25:00,72.3,70.8,30.21,South,186,0.0,0.0,95,0.00,,,0.00,0,Wunderground v.1.15,2013-08-21 00:25:00,
2013-08-20 20:30:00,72.2,71.0,30.21,South,186,0.0,0.0,96,0.00,,,0.00,0,Wunderground v.1.15,2013-08-21 00:30:00,
2013-08-20 20:35:00,72.2,71.0,30.21,South,186,0.0,0.0,96,0.00,,,0.00,0,Wunderground v.1.15,2013-08-21 00:35:00,
2013-08-20 20:40:00,71.9,70.7,30.21,South,186,0.0,0.0,96,0.00,,,0.00,0,Wunderground v.1.15,2013-08-21 00:40:00,
2013-08-20 20:45:00,71.8,70.6,30.21,South,186,0.0,0.0,96,0.00,,,0.00,0,Wunderground v.1.15,2013-08-21 00:45:00,
2013-08-20 20:50:00,71.9,71.0,30.21,South,186,0.0,0.0,97,0.00,,,0.00,0,Wunderground v.1.15,2013-08-21 00:50:00,
2013-08-20 20:55:00,72.0,71.1,30.21,South,186,0.0,0.0,97,0.00,,,0.00,0,Wunderground v.1.15,2013-08-21 00:55:00,
2013-08-20 21:02:00,71.8,70.9,30.22,South,186,0.0,0.0,97,0.00,,,0.00,0,Wunderground v.1.15,2013-08-21 01:02:00,
2013-08-20 21:07:00,71.8,70.9,30.22,South,186,0.0,0.0,97,0.00,,,0.00,0,Wunderground v.1.15,2013-08-21 01:07:00,
2013-08-20 21:12:00,71.9,71.0,30.22,South,186,0.0,0.0,97,0.00,,,0.00,0,Wunderground v.1.15,2013-08-21 01:12:00,
2013-08-20 21:17:00,71.7,70.8,30.22,South,186,0.0,0.0,97,0.00,,,0.00,0,Wunderground v.1.15,2013-08-21 01:17:00,
2013-08-20 21:19:00,71.6,70.7,30.22,South,186,0.0,0.0,97,0.00,,,0.00,0,Wunderground v.1.15,2013-08-21 01:19:00,
2013-08-20 21:24:00,71.2,70.3,30.22,South,186,0.0,0.0,97,0.00,,,0.00,0,Wunderground v.1.15,2013-08-21 01:24:00,
2013-08-20 21:29:00,71.0,70.1,30.22,South,186,0.0,0.0,97,0.00,,,0.00,0,Wunderground v.1.15,2013-08-21 01:29:00,
2013-08-20 21:34:00,71.0,70.1,30.22,South,186,0.0,0.0,97,0.00,,,0.00,0,Wunderground v.1.15,2013-08-21 01:34:00,
2013-08-20 21:39:00,71.0,70.1,30.22,South,186,0.0,0.0,97,0.00,,,0.00,0,Wunderground v.1.15,2013-08-21 01:39:00,
2013-08-20 21:44:00,70.8,69.9,30.22,South,186,0.0,0.0,97,0.00,,,0.00,0,Wunderground v.1.15,2013-08-21 01:44:00,
2013-08-20 21:49:00,71.0,70.1,30.22,South,186,0.0,0.0,97,0.00,,,0.00,0,Wunderground v.1.15,2013-08-21 01:49:00,
2013-08-20 21:54:00,71.0,70.1,30.22,South,186,0.0,0.0,97,0.00,,,0.00,0,Wunderground v.1.15,2013-08-21 01:54:00,
2013-08-20 21:59:00,70.8,69.9,30.22,South,186,0.0,1.0,97,0.00,,,0.00,0,Wunderground v.1.15,2013-08-21 01:59:00,
2013-08-20 22:04:00,70.8,69.9,30.23,South,186,0.0,1.0,97,0.00,,,0.00,0,Wunderground v.1.15,2013-08-21 02:04:00,
2013-08-20 22:09:00,70.7,69.8,30.23,South,186,0.0,1.0,97,0.00,,,0.00,0,Wunderground v.1.15,2013-08-21 02:09:00,
2013-08-20 22:14:00,70.5,69.6,30.23,South,186,0.0,0.0,97,0.00,,,0.00,0,Wunderground v.1.15,2013-08-21 02:14:00,
2013-08-20 22:19:00,70.4,69.8,30.22,South,186,0.0,0.0,98,0.00,,,0.00,0,Wunderground v.1.15,2013-08-21 02:19:00,
2013-08-20 22:24:00,70.4,69.8,30.22,South,186,0.0,0.0,98,0.00,,,0.00,0,Wunderground v.1.15,2013-08-21 02:24:00,
2013-08-20 22:29:00,70.4,69.8,30.23,South,186,0.0,0.0,98,0.00,,,0.00,0,Wunderground v.1.15,2013-08-21 02:29:00,
2013-08-20 22:34:00,70.3,69.7,30.23,South,186,0.0,0.0,98,0.00,,,0.00,0,Wunderground v.1.15,2013-08-21 02:34:00,
2013-08-20 22:39:00,70.2,69.6,30.23,South,186,0.0,0.0,98,0.00,,,0.00,0,Wunderground v.1.15,2013-08-21 02:39:00,
2013-08-20 22:44:00,70.2,69.6,30.23,South,186,0.0,0.0,98,0.00,,,0.00,0,Wunderground v.1.15,2013-08-21 02:44:00,
2013-08-20 22:49:00,70.0,69.4,30.23,South,186,0.0,0.0,98,0.00,,,0.00,0,Wunderground v.1.15,2013-08-21 02:49:00,
2013-08-20 22:54:00,70.0,69.4,30.23,South,186,0.0,0.0,98,0.00,,,0.00,0,Wunderground v.1.15,2013-08-21 02:54:00,
2013-08-20 22:59:00,70.3,69.7,30.23,South,186,0.0,0.0,98,0.00,,,0.00,0,Wunderground v.1.15,2013-08-21 02:59:00,
2013-08-20 23:04:00,69.9,69.3,30.23,South,186,0.0,0.0,98,0.00,,,0.00,0,Wunderground v.1.15,2013-08-21 03:04:00,
2013-08-20 23:09:00,69.7,69.1,30.23,South,186,0.0,0.0,98,0.00,,,0.00,0,Wunderground v.1.15,2013-08-21 03:09:00,
2013-08-20 23:14:00,69.5,68.9,30.23,South,186,0.0,0.0,98,0.00,,,0.00,0,Wunderground v.1.15,2013-08-21 03:14:00,
2013-08-20 23:19:00,69.7,69.1,30.23,South,186,0.0,0.0,98,0.00,,,0.00,0,Wunderground v.1.15,2013-08-21 03:19:00,
2013-08-20 23:24:00,69.5,68.9,30.23,South,186,0.0,0.0,98,0.00,,,0.00,0,Wunderground v.1.15,2013-08-21 03:24:00,
2013-08-20 23:29:00,69.3,68.7,30.23,South,186,0.0,0.0,98,0.00,,,0.00,0,Wunderground v.1.15,2013-08-21 03:29:00,
2013-08-20 23:35:00,69.7,69.1,30.23,South,186,0.0,0.0,98,0.00,,,0.00,0,Wunderground v.1.15,2013-08-21 03:35:00,
2013-08-20 23:40:00,69.6,69.0,30.23,South,186,0.0,0.0,98,0.00,,,0.00,0,Wunderground v.1.15,2013-08-21 03:40:00,
2013-08-20 23:45:00,69.8,69.2,30.23,South,186,0.0,0.0,98,0.00,,,0.00,0,Wunderground v.1.15,2013-08-21 03:45:00,
2013-08-20 23:50:00,69.7,69.1,30.23,South,186,0.0,0.0,98,0.00,,,0.00,0,Wunderground v.1.15,2013-08-21 03:50:00,
2013-08-20 23:55:00,69.6,69.0,30.23,South,186,0.0,0.0,98,0.00,,,0.00,0,Wunderground v.1.15,2013-08-21 03:55:00,